SAOCOM 1A

Last updated on Wed Mar 11 2026 00:02:19 GMT+0000 (Coordinated Universal Time)

1 43641U 18076A 26068.96299391 .00001305 00000+0 17043-3 0 9996 2 43641 97.8895 257.1316 0001339 83.6952 276.4413 14.82173643401405
UTC large
Height (km)
Speed (km/s)
/
Latitude / Longitude
Inclination (degrees)
Orbital Period (minutes)
Azimuth
Elevation
Range (km)
Doppler Factor

Next 0 passes for location: London (51.5072 / 0.1276)

Sorry there are no passes over London.